CW0630 Weather Reports


Display with metric or nautical units.
time (UTC)temp
F
wind
direction
speed
MPH
gust
MPH
rain 1hr
in
rain 24hr
in
rain mn
in
humidity
%
barometer
mb
20211127021027 33 302 3.0 3.0 0.00 0.13 0.13 64 1015.0
20211127011034 35 323 6.0 6.0 0.00 0.13 0.13 58 1015.0
20211127001017 37 275 2.0 2.0 0.00 0.13 0.13 55 1014.6
20211126231015 39 305 2.0 3.0 0.00 0.13 0.13 51 1013.4
20211126221028 42 294 2.0 5.0 0.00 0.13 0.13 45 1013.0
20211126211024 45 343 9.0 9.0 0.00 0.13 0.13 42 1012.5
20211126201033 48 338 1.0 2.0 0.00 0.13 0.13 36 1011.9
20211126191019 52 319 10.0 10.0 0.00 0.13 0.13 33 1011.2
20211126181035 54 300 9.0 9.0 0.00 0.13 0.13 34 1010.8
20211126171030 55 284 2.0 2.0 0.00 0.13 0.13 38 1010.9
20211126161020 52 230 1.0 2.0 0.00 0.13 0.13 45 1011.4
20211126151019 53 302 3.0 9.0 0.00 0.13 0.13 51 1011.4
20211126141029 53 355 1.0 1.0 0.00 0.13 0.13 62 1010.8
20211126131020 47 248 1.0 1.0 0.00 0.13 0.13 94 1010.0
20211126121021 42 302 0.0 2.0 0.00 0.13 0.13 95 1009.1
20211126111013 44 241 0.0 1.0 0.00 0.13 0.13 94 1008.5
20211126101027 45 230 1.0 3.0 0.00 0.13 0.13 93 1007.8
20211126091016 46 196 1.0 1.0 0.01 0.13 0.13 92 1007.8
20211126081024 46 196 3.0 3.0 0.01 0.12 0.12 91 1008.8
20211126071027 46 229 2.0 5.0 0.08 0.11 0.11 89 1009.7
20211126061016 48 234 0.0 0.0 0.03 0.03 0.03 82 1010.1
20211126051018 52 213 2.0 5.0 0.00 0.00 0.00 56 1010.3
20211126041030 54 181 4.0 4.0 0.00 0.00 0.00 43 1010.9
20211126031022 54 192 5.0 9.0 0.00 0.00 0.00 42 1011.4